Flight Track Log - Related Links

Times and Time Zones

All times are in EDT time to prevent confusion due to time zone crossing. See the ASQ4896 flight status page for this flight to view local times or setup timezone preferences in your user account.

Time Position Orientation Groundspeed Altitude Reporting Facility
EDT Latitude Longitude Course Direction KTS MPH feet Rate Location/Type
06:03AM 42.8817 -85.5592 60° Northeast 155 178 2,700  Level Chicago Center
06:04AM 42.9367 -85.5625 357° North 271 312 4,800 2,182 Climbing Chicago Center
06:05AM 42.9783 -85.4694 59° Northeast 282 325 7,100 1,983 Climbing Chicago Center
06:06AM 43.0100 -85.3614 68° East 304 350 8,800 1,736 Climbing Chicago Center
06:07AM 43.0294 -85.2378 78° East 327 376 10,600 1,537 Climbing Chicago Center
06:08AM 42.9193 -85.1106 60° Northeast  Level FlightAware Approximate
06:08AM 43.0522 -85.1014 77° East 363 418 11,900  Level Chicago Center
06:09AM 43.0753 -84.9542 78° East 391 450 13,600 1,884 Climbing Chicago Center
06:10AM 43.0778 -84.8058 89° East 400 460 15,700 2,033 Climbing Chicago Center
06:11AM 43.0472 -84.6594 106° East 401 461 17,700 2,182 Climbing Chicago Center
06:12AM 43.0139 -84.5114 107° East 404 465 20,100 1,140 Climbing Chicago Center
06:13AM 42.9725 -84.3278 107° East 420 483 20,000 -1,009 Descending Chicago Center
06:14AM 42.9431 -84.2058 108° East 436 502 18,300 -2,545 Descending Cleveland Center
06:14AM 42.9322 -84.1497 105° East 436 502 17,200 -2,354 Descending Cleveland Center
06:15AM 42.8969 -84.0044 108° East 419 482 15,200 -2,066 Descending Cleveland Center
06:15AM 42.8975 -83.9989 82° East 424 488 15,100 -1,869 Descending Cleveland Center
06:16AM 42.8647 -83.8600 108° East 396 456 13,300 -1,869 Descending Cleveland Center
06:16AM 42.8650 -83.8525 87° East 408 470 13,200 -1,279 Descending Cleveland Center
06:17AM 42.8206 -83.7336 117° Southeast 350 403 12,000 -1,180 Descending Cleveland Center
06:17AM 42.8192 -83.7294 114° Southeast 370 426 12,000  Level Cleveland Center
06:18AM 42.7492 -83.6833 154° Southeast 233 268 12,000  Level Cleveland Center
06:18AM 42.7514 -83.6842 345° North 271 312 12,000 -1,031 Level Cleveland Center
06:19AM 42.6981 -83.6517 156° South 218 251 10,900 -1,406 Descending Cleveland Center
06:19AM 42.6911 -83.6492 165° South 206 237 10,500 -1,869 Descending Cleveland Center
06:20AM 42.6592 -83.5878 125° Southeast 236 272 9,000 -1,574 Descending Cleveland Center
06:20AM 42.6547 -83.5786 123° Southeast 243 280 8,900 -1,138 Descending Cleveland Center
06:21AM 42.6247 -83.5061 119° Southeast 232 267 7,900 -1,034 Descending Cleveland Center
06:21AM 42.6278 -83.5100 317° Northwest 237 273 7,900 -1,000 Level Cleveland Center
06:22AM 42.5931 -83.4306 121° Southeast 235 270 6,900 -984 Descending Cleveland Center
06:22AM 42.5956 -83.4322 334° Northwest 237 273 6,900 -764 Level Cleveland Center
06:23AM 42.5631 -83.3583 121° Southeast 237 273 6,200 -689 Descending Cleveland Center
06:23AM 42.5628 -83.3536 95° East 237 273 6,200 -845 Level Cleveland Center
06:24AM 42.5300 -83.2761 120° Southeast 237 273 5,200 -934 Descending Cleveland Center
06:25AM 42.4856 -83.2228 138° Southeast 217 250 4,300 -590 Descending Cleveland Center
06:26AM 42.4383 -83.2161 174° South 173 199 4,000 -265 Descending Cleveland Center
06:26AM 42.4250 -83.2172 184° South 157 181 4,000  Level Cleveland Center
06:27AM 42.4000 -83.2342 207° Southwest 154 177 4,000  Level Cleveland Center
06:27AM 42.3917 -83.2436 220° Southwest 129 148 4,000 -107 Level Cleveland Center
06:28AM 42.3669 -83.2656 213° Southwest 133 153 3,900  Descending Cleveland Center
06:28AM 42.3706 -83.2619 36° Northeast 135 155 4,000 -800 Climbing Cleveland Center
06:29AM 42.3317 -83.2889 207° Southwest 134 154 3,100 -787 Descending Cleveland Center
06:29AM 42.3367 -83.2850 30° Northeast 135 155 3,200 -689 Climbing Cleveland Center
06:30AM 42.3003 -83.3128 209° Southwest 131 151 2,400 -885 Descending Cleveland Center
06:30AM 42.2981 -83.3136 196° South 135 155 2,300 -667 Descending Cleveland Center
06:31AM 42.2739 -83.3317 209° Southwest 116 133 1,800 -590 Descending Cleveland Center
06:31AM 42.2689 -83.3344 202° Southwest 127 146 1,700 -590 Descending Cleveland Center
06:32AM 42.2450 -83.3528 210° Southwest 116 133 1,200 -581 Descending Cleveland Center
06:32AM 42.2406 -83.3544 196° South 119 137 1,100 -320 Descending Cleveland Center
06:33AM 42.2139 -83.3753 210° Southwest 119 137 800 -295 Descending Cleveland Center

Login

Don't have an account? Register now (free) for customized features, flight alerts, and more!